Find Starlink 37949

NORAD ID: 69671 Int'l Des: 2026-143 Owner: SPXS Country: US Constellation: starlink operational
LEOCIRCULARRETROGRADE

当前视图

正在加载3D地球...

About Starlink 37949

Starlink 37949 (NORAD 69671) is a starlink constellation satellite (v2 mini) launched Jun 21, 2026 by SPXS of US. It operates in LEO, CIRCULAR, RETROGRADE orbit with a mass of 575.00 kg.

即将过境

Passes for default location (London). Set your location on the main map for personalized predictions.

高度历史

Loading altitude history...

两行轨道根数

1 69671U 26143Y 26238.56328809 .00018783 00000-0 58265-3 0 9993
2 69671 97.2836 282.1498 0000361 93.9221 266.2063 15.33446627 11329
Epoch: Aug 26, 2026 • Age: 7 hours

当前状态

高度 491.7 km
远地点 / 近地点 N/A
速度 7.62 km/s
星下点 -69.04°S, 154.9°E
发射日期 Jun 21, 2026
运行时间 0.1 years
类型 internet

技术详情

分类 Payload
质量 575.00 kg
干质量 530.00 kg
总质量 575.00 kg
长度 0.30 m
直径 4.10 m
跨度 29.00 m
形状 Box + pan
制造商 SPXS
平台类型 Starlink V2MO
阶段状态 In Orbit
所有者/国家 SPXS/US

Most Searched